This is the latest recevied weather packets stored in our database for station/object WD4IXD-WX. If no packets are shown the sender has not sent any weather packets the latest 10 day(s).
| Time | Temp. | Humidity | Pressure | Rain* | Wind** | Luminosity | Snow |
|---|---|---|---|---|---|---|---|
| 1778109904 | -0.56° C | 71% | 1018.2 hPa | 0 mm | - | 503 W/m² | - |
| 1778109604 | -0.56° C | 72% | 1018.2 hPa | 0 mm | - | 519 W/m² | - |
| 1778109303 | -0.56° C | 74% | 1018.2 hPa | 0 mm | - | 536 W/m² | - |
| 1778109004 | -0.56° C | 73% | 1018.1 hPa | 0 mm | - | 550 W/m² | - |
| 1778108704 | -0.56° C | 72% | 1018.1 hPa | 0 mm | - | 568 W/m² | - |
| 1778108404 | -0.56° C | 74% | 1017.9 hPa | 0 mm | - | 585 W/m² | - |
| 1778108104 | -1.11° C | 71% | 1017.8 hPa | 0 mm | - | 599 W/m² | - |
| 1778107803 | -1.11° C | 72% | 1017.8 hPa | 0 mm | - | 619 W/m² | - |
| 1778107504 | -1.11° C | 71% | 1017.9 hPa | 0 mm | - | 633 W/m² | - |
| 1778107204 | -1.11° C | 72% | 1017.9 hPa | 0 mm | - | 649 W/m² | - |
| 1778106904 | -1.11° C | 72% | 1017.9 hPa | 0 mm | - | 659 W/m² | - |
| 1778106604 | -1.11° C | 71% | 1017.9 hPa | 0 mm | - | 675 W/m² | - |
| 1778106303 | -1.11° C | 70% | 1017.9 hPa | 0.25 mm | - | 696 W/m² | - |
| 1778106004 | -1.11° C | 73% | 1017.9 hPa | 0.25 mm | - | 710 W/m² | - |
| 1778105704 | -1.67° C | 74% | 1017.8 hPa | 0.25 mm | - | 722 W/m² | - |
| 1778105404 | -1.67° C | 73% | 1017.8 hPa | 0.25 mm | - | 738 W/m² | - |
| 1778105104 | -1.67° C | 73% | 1017.8 hPa | 0.25 mm | - | 752 W/m² | - |
| 1778104803 | -1.67° C | 71% | 1017.8 hPa | 0.25 mm | - | 763 W/m² | - |
| 1778104504 | -1.67° C | 73% | 1017.8 hPa | 0.25 mm | - | 784 W/m² | - |
| 1778104204 | -2.22° C | 75% | 1017.8 hPa | 0.25 mm | - | 802 W/m² | - |
| 1778103904 | -2.22° C | 74% | 1017.8 hPa | 0.25 mm | - | 823 W/m² | - |
| 1778103604 | -2.22° C | 75% | 1017.8 hPa | 0.25 mm | - | 629 W/m² | - |
| 1778103304 | -2.22° C | 72% | 1017.8 hPa | 0.51 mm | - | 450 W/m² | - |
| 1778103004 | -2.22° C | 72% | 1017.8 hPa | 0.51 mm | - | 501 W/m² | - |
| 1778102704 | -2.22° C | 74% | 1017.9 hPa | 0.25 mm | - | 496 W/m² | - |
* Rain latest hour (hover to see other rain measurements)
** Current wind speed in m/s (hover to see current wind gust speed)